Tracking 31027 objects as of 19-Jul-2025
HD Live streaming from Space Station
objects crossing your sky now

NOAA 16 DEB

Track NOAA 16 DEB now!
10-day predictions


NORAD ID: 41652
Int'l Code: 2000-055NR
Perigee: 752.3 km
Apogee: 797.5 km
Inclination: 98.9 °
Period: 100.2 minutes
Semi major axis: 7145 km
RCS: Unknown
Launch date: September 21, 2000
Source: United States (US)
Launch site: AIR FORCE WESTERN TEST RANGE (AFWTR)

Note: This is SATELLITE DEBRIS
Your satellite tracking list
PRISMA
Track 1 satellite(s)




NASA's NSSDC Master Catalog

Two Line Element Set (TLE):
1 41652U 00055NR  25199.12337359  .00007048  00000-0  23676-2 0  9992
2 41652  98.8789 297.4435 0031673 347.5154  12.5244 14.37205208476874
Source of the keplerian elements: AFSPC